Regional Weather Roundup
Issued by NWS Green Bay, WI

Home | Current Version | Previous Version | Text Only | Print | Product List | Glossary On
Versions: 1 2 3 4 5 6 7 8 9 10 11 12 13 14 15 16 17 18 19 20 21 22 23 24 25 26 27 28 29 30 31 32 33 34 35 36 37 38 39 40 41 42 43 44 45 46 47 48 49 50
000
ASUS43 KGRB 171100
RWRGRB

NORTH-CENTRAL AND NORTHEAST WISCONSIN REGIONAL WEATHER ROUNDUP
NATIONAL WEATHER SERVICE GREEN BAY WI
500 AM CST WED JAN 17 2018

WIZ005-009-010>012-018-019-171200-
NORTH CENTRAL WISCONSIN

CITY           SKY/WX    TMP DP  RH WIND       PRES   REMARKS
IRONWOOD       FAIR       9  -1  64 SW15G23   30.21F WCI  -8
MANITOWISH WTR NOT AVBL
ARBOR VITAE    NOT AVBL
EAGLE RIVER    FAIR       3  -3  75 SW12      30.22F WCI -13
LAND O LAKES   NOT AVBL
RHINELANDER    CLOUDY     4  -1  80 W10       30.26S WCI -11
PHILLIPS       FAIR       0  -4  82 SW10      30.28F WCI -16
ANTIGO         NOT AVBL
TOMAHAWK       NOT AVBL
MERRILL        FAIR       0  -4  84 SW3       30.34F
$$

WIZ013-073-171200-
NORTHEAST WISCONSIN

CITY           SKY/WX    TMP DP  RH WIND       PRES   REMARKS
IRON MOUNTAIN  CLOUDY    11   1  64 W5        30.22F WCI   3
MARINETTE      MOCLDY     6   3  87 W7        30.35S WCI  -6
$$

WIZ017-030-035>037-045-171200-
CENTRAL WISCONSIN

CITY           SKY/WX    TMP DP  RH WIND       PRES   REMARKS
MEDFORD        NOT AVBL
WAUSAU         MOCLDY    -1  -5  82 CALM      30.34F
MOSINEE        NOT AVBL
MARSHFIELD     CLOUDY    -2  -6  83 W8        30.37F WCI -17
WISC RAPIDS    MOCLDY    -2  -8  76 W7        30.43S WCI -15
STEVENS POINT  NOT AVBL
WAUPACA        NOT AVBL
SHAWANO        MOCLDY     6   0  76 SW7       30.37F WCI  -6
CLINTONVILLE   NOT AVBL
WAUTOMA        FAIR      -1  -5  82 W7        30.46R WCI -14
$$

WIZ038-039-048-051-171200-
FOX VALLEY

CITY           SKY/WX    TMP DP  RH WIND       PRES   REMARKS
NWS GREEN BAY  MOCLDY     4  -2  76 SW10      30.41S WCI -11
APPLETON       NOT AVBL
OSHKOSH        FAIR       3  -1  83 W9        30.43S WCI -12
FOND DU LAC    FAIR       3  -3  76 SW6       30.45R WCI  -8
$$

WIZ022-050-052-171200-
EAST CENTRAL WISCONSIN

CITY           SKY/WX    TMP DP  RH WIND       PRES   REMARKS
EPHRAIM        NOT AVBL
WASHINGTON ISL NOT AVBL
STURGEON BAY   CLOUDY     6   1  80 SW15      30.36S WCI -12
MANITOWOC      FAIR       5   0  79 W13       30.42S WCI -12
SHEBOYGAN      FAIR       4   0  83 W10       30.42F WCI -11
$$

LMZ563-521-522-541>543-171200-
LAKESHORE

STATION/POSITION TIME  TEMP    WIND        PRES    VSBY  WAVE
                       AIR SEA DIR/SP/G                  HT/PER
                 (UTC) (F)     (DEG/KT/KT) (MB)    (MI)  (FT/S)
SHEBOYGAN LKSHOR 1000    8     260/ 14/ 16 1031.9F
KEWAUNEE LKSHORE 1030    6     270/  8/ 12 1028.3S
NORTHPORT PIER   1040    9     230/ 11/ 31 1026.8S
MENOMINEE LKSHOR 1024    7     220/ 10/ 14 1027.3
$$




USA.gov is the U.S. government's official web portal to all federal, state and local government web resources and services.